Time,TemperatureF,DewpointF,PressureIn,WindDirection,WindDirectionDegrees,WindSpeedMPH,WindSpeedGustMPH,Humidity,HourlyPrecipIn,Conditions,Clouds,dailyrainin,SoftwareType,DateUTC
2013-02-09 00:22:00,33.0,23.0,-100.00,NW,323,21.0,27.0,64,0.00,,,0.66,,2013-02-09 05:22:00,
2013-02-09 00:32:00,33.0,23.0,-100.00,NW,323,21.0,27.0,64,0.00,,,0.66,,2013-02-09 05:32:00,
2013-02-09 00:42:00,33.0,22.0,-100.00,NW,316,15.0,20.0,63,0.00,,,0.60,,2013-02-09 05:42:00,
2013-02-09 00:52:00,33.0,22.0,-100.00,NW,316,15.0,20.0,63,0.00,,,0.60,,2013-02-09 05:52:00,
2013-02-09 01:02:00,33.0,22.0,-100.00,NW,322,17.0,26.0,63,0.00,,,0.54,,2013-02-09 06:02:00,
2013-02-09 01:11:00,33.0,22.0,-100.00,NW,322,17.0,26.0,63,0.00,,,0.54,,2013-02-09 06:11:00,
2013-02-09 01:21:00,33.0,22.0,-100.00,NNW,329,15.0,25.0,62,0.00,,,0.49,,2013-02-09 06:21:00,
2013-02-09 01:32:00,33.0,22.0,-100.00,NNW,329,15.0,25.0,62,0.00,,,0.49,,2013-02-09 06:32:00,
2013-02-09 01:42:00,33.0,20.0,-100.00,NNW,328,20.0,26.0,59,0.00,,,0.39,,2013-02-09 06:42:00,
2013-02-09 01:52:00,33.0,20.0,-100.00,NNW,328,20.0,26.0,59,0.00,,,0.39,,2013-02-09 06:52:00,
2013-02-09 02:01:00,33.0,20.0,-100.00,NNW,333,17.0,28.0,59,0.00,,,0.34,,2013-02-09 07:01:00,
2013-02-09 02:11:00,33.0,20.0,-100.00,NNW,333,17.0,28.0,59,0.00,,,0.34,,2013-02-09 07:11:00,
2013-02-09 02:21:00,32.0,20.0,-100.00,NNW,329,13.0,22.0,59,0.00,,,0.28,,2013-02-09 07:21:00,
2013-02-09 02:32:00,32.0,20.0,-100.00,NNW,329,13.0,22.0,59,0.00,,,0.28,,2013-02-09 07:32:00,
2013-02-09 02:42:00,32.0,20.0,-100.00,NNW,329,13.0,22.0,59,0.00,,,0.28,,2013-02-09 07:42:00,
2013-02-09 03:01:00,32.0,19.0,-100.00,North,349,8.0,13.0,58,0.00,,,0.17,,2013-02-09 08:01:00,
2013-02-09 03:11:00,32.0,19.0,-100.00,North,349,8.0,13.0,58,0.00,,,0.17,,2013-02-09 08:11:00,
2013-02-09 03:21:00,32.0,19.0,-100.00,North,349,8.0,13.0,58,0.00,,,0.17,,2013-02-09 08:21:00,
2013-02-09 03:42:00,31.0,18.0,-100.00,NW,323,2.0,4.0,59,0.00,,,0.08,,2013-02-09 08:42:00,
2013-02-09 03:52:00,31.0,18.0,-100.00,NW,323,2.0,4.0,59,0.00,,,0.08,,2013-02-09 08:52:00,
2013-02-09 04:03:00,31.0,18.0,-100.00,NW,323,2.0,4.0,59,0.00,,,0.08,,2013-02-09 09:03:00,
2013-02-09 04:22:00,30.0,17.0,-100.00,SSE,152,4.0,7.0,57,0.00,,,0.07,,2013-02-09 09:22:00,
2013-02-09 04:32:00,30.0,17.0,-100.00,SSE,152,4.0,7.0,57,0.00,,,0.07,,2013-02-09 09:32:00,
2013-02-09 04:42:00,31.0,16.0,-100.00,SE,143,7.0,14.0,53,0.00,,,0.07,,2013-02-09 09:42:00,
2013-02-09 04:52:00,31.0,16.0,-100.00,SE,143,7.0,14.0,53,0.00,,,0.07,,2013-02-09 09:52:00,
2013-02-09 05:01:00,31.0,16.0,-100.00,SE,143,7.0,14.0,53,0.00,,,0.07,,2013-02-09 10:01:00,
2013-02-09 05:21:00,30.0,15.0,-100.00,West,278,6.0,11.0,53,0.00,,,0.07,,2013-02-09 10:21:00,
2013-02-09 05:32:00,30.0,15.0,-100.00,West,278,6.0,11.0,53,0.00,,,0.07,,2013-02-09 10:32:00,
2013-02-09 05:42:00,30.0,15.0,-100.00,West,275,5.0,10.0,52,0.00,,,0.07,,2013-02-09 10:42:00,
2013-02-09 05:52:00,30.0,15.0,-100.00,NW,311,5.0,9.0,52,0.00,,,0.07,,2013-02-09 10:52:00,
2013-02-09 06:02:00,30.0,15.0,-100.00,NW,311,5.0,9.0,52,0.00,,,0.07,,2013-02-09 11:02:00,
2013-02-09 06:11:00,30.0,15.0,-100.00,NW,311,5.0,9.0,52,0.00,,,0.07,,2013-02-09 11:11:00,
2013-02-09 06:22:00,29.0,15.0,-100.00,NW,316,10.0,13.0,54,0.00,,,0.07,,2013-02-09 11:22:00,
2013-02-09 06:32:00,29.0,15.0,-100.00,NW,316,10.0,13.0,54,0.00,,,0.07,,2013-02-09 11:32:00,
2013-02-09 06:42:00,29.0,15.0,-100.00,NW,322,15.0,19.0,56,0.00,,,0.07,,2013-02-09 11:42:00,
2013-02-09 06:52:00,29.0,15.0,-100.00,NW,322,15.0,19.0,56,0.00,,,0.07,,2013-02-09 11:52:00,
2013-02-09 07:02:00,29.0,14.0,-100.00,NW,326,19.0,24.0,54,0.00,,,0.07,,2013-02-09 12:02:00,
2013-02-09 07:11:00,29.0,14.0,-100.00,NW,326,19.0,24.0,54,0.00,,,0.07,,2013-02-09 12:11:00,
2013-02-09 07:22:00,29.0,14.0,-100.00,NW,320,13.0,17.0,54,0.00,,,0.07,,2013-02-09 12:22:00,
2013-02-09 07:32:00,29.0,14.0,-100.00,NW,320,13.0,17.0,54,0.00,,,0.07,,2013-02-09 12:32:00,
2013-02-09 07:42:00,29.0,14.0,-100.00,NW,320,13.0,17.0,54,0.00,,,0.07,,2013-02-09 12:42:00,
2013-02-09 08:02:00,28.0,13.0,-100.00,NW,313,10.0,15.0,52,0.00,,,0.07,,2013-02-09 13:02:00,
2013-02-09 08:11:00,28.0,13.0,-100.00,NW,313,10.0,15.0,52,0.00,,,0.07,,2013-02-09 13:11:00,
2013-02-09 08:22:00,28.0,13.0,-100.00,NW,315,8.0,12.0,52,0.00,,,0.07,,2013-02-09 13:22:00,
2013-02-09 08:32:00,28.0,13.0,-100.00,NW,315,8.0,12.0,52,0.00,,,0.07,,2013-02-09 13:32:00,
2013-02-09 08:42:00,29.0,13.0,-100.00,NNW,330,5.0,8.0,51,0.00,,,0.07,,2013-02-09 13:42:00,
2013-02-09 08:52:00,29.0,13.0,-100.00,NNW,330,5.0,8.0,51,0.00,,,0.07,,2013-02-09 13:52:00,
2013-02-09 09:01:00,29.0,13.0,-100.00,NW,313,5.0,8.0,50,0.00,,,0.07,,2013-02-09 14:01:00,
2013-02-09 09:11:00,29.0,13.0,-100.00,NW,313,5.0,8.0,50,0.00,,,0.07,,2013-02-09 14:11:00,
2013-02-09 09:22:00,29.0,13.0,-100.00,NW,320,7.0,10.0,51,0.00,,,0.07,,2013-02-09 14:22:00,
2013-02-09 09:32:00,29.0,13.0,-100.00,NW,320,7.0,10.0,51,0.00,,,0.07,,2013-02-09 14:32:00,
2013-02-09 09:42:00,30.0,14.0,-100.00,NW,320,9.0,12.0,51,0.00,,,0.07,,2013-02-09 14:42:00,
2013-02-09 09:52:00,30.0,14.0,-100.00,NW,320,9.0,12.0,51,0.00,,,0.07,,2013-02-09 14:52:00,
2013-02-09 10:02:00,31.0,14.0,-100.00,NNW,328,12.0,14.0,49,0.00,,,0.07,,2013-02-09 15:02:00,
2013-02-09 10:11:00,31.0,14.0,-100.00,NNW,328,12.0,14.0,49,0.00,,,0.07,,2013-02-09 15:11:00,
2013-02-09 10:22:00,31.0,14.0,-100.00,NNW,330,12.0,15.0,48,0.00,,,0.06,,2013-02-09 15:22:00,
2013-02-09 10:32:00,31.0,14.0,-100.00,NNW,330,12.0,15.0,48,0.00,,,0.06,,2013-02-09 15:32:00,
2013-02-09 10:42:00,31.0,14.0,-100.00,NW,320,11.0,13.0,47,0.00,,,0.06,,2013-02-09 15:42:00,
2013-02-09 10:52:00,31.0,14.0,-100.00,NW,320,11.0,13.0,47,0.00,,,0.06,,2013-02-09 15:52:00,
2013-02-09 11:01:00,33.0,12.0,-100.00,NW,322,11.0,14.0,43,0.00,,,0.06,,2013-02-09 16:01:00,
2013-02-09 11:11:00,33.0,12.0,-100.00,NW,322,11.0,14.0,43,0.00,,,0.06,,2013-02-09 16:11:00,
2013-02-09 11:22:00,34.0,14.0,-100.00,NW,316,4.0,7.0,43,0.00,,,0.01,,2013-02-09 16:22:00,
2013-02-09 11:32:00,34.0,14.0,-100.00,NW,316,4.0,7.0,43,0.00,,,0.01,,2013-02-09 16:32:00,
2013-02-09 11:42:00,34.0,13.0,-100.00,NW,308,5.0,8.0,40,0.00,,,0.00,,2013-02-09 16:42:00,
2013-02-09 11:52:00,34.0,13.0,-100.00,NW,308,5.0,8.0,40,0.00,,,0.00,,2013-02-09 16:52:00,
2013-02-09 12:01:00,36.0,13.0,-100.00,NW,325,4.0,6.0,38,0.00,,,0.00,,2013-02-09 17:01:00,
2013-02-09 12:11:00,36.0,13.0,-100.00,NW,325,4.0,6.0,38,0.00,,,0.00,,2013-02-09 17:11:00,
2013-02-09 12:22:00,37.0,13.0,-100.00,NNW,332,7.0,11.0,36,0.00,,,0.00,,2013-02-09 17:22:00,
2013-02-09 12:32:00,37.0,13.0,-100.00,NNW,332,7.0,11.0,36,0.00,,,0.00,,2013-02-09 17:32:00,
2013-02-09 12:42:00,38.0,13.0,-100.00,West,271,6.0,8.0,35,0.00,,,0.00,,2013-02-09 17:42:00,
2013-02-09 12:52:00,38.0,13.0,-100.00,West,271,6.0,8.0,35,0.00,,,0.00,,2013-02-09 17:52:00,
2013-02-09 13:02:00,38.0,12.0,-100.00,NW,325,5.0,10.0,34,0.00,,,0.00,,2013-02-09 18:02:00,
2013-02-09 13:12:00,38.0,12.0,-100.00,NW,325,5.0,10.0,34,0.00,,,0.00,,2013-02-09 18:12:00,
2013-02-09 13:23:00,39.0,11.0,-100.00,NW,316,7.0,10.0,31,0.00,,,0.00,,2013-02-09 18:23:00,
2013-02-09 13:32:00,39.0,11.0,-100.00,NW,316,7.0,10.0,31,0.00,,,0.00,,2013-02-09 18:32:00,
2013-02-09 13:42:00,41.0,11.0,-100.00,WNW,296,4.0,8.0,29,0.00,,,0.00,,2013-02-09 18:42:00,
2013-02-09 13:52:00,41.0,11.0,-100.00,WNW,296,4.0,8.0,29,0.00,,,0.00,,2013-02-09 18:52:00,
2013-02-09 14:02:00,42.0,13.0,-100.00,NW,315,6.0,9.0,31,0.00,,,0.00,,2013-02-09 19:02:00,
2013-02-09 14:11:00,42.0,13.0,-100.00,NW,315,6.0,9.0,31,0.00,,,0.00,,2013-02-09 19:11:00,
2013-02-09 14:22:00,42.0,12.0,-100.00,NW,326,7.0,9.0,30,0.00,,,0.00,,2013-02-09 19:22:00,
2013-02-09 14:32:00,42.0,12.0,-100.00,NW,326,7.0,9.0,30,0.00,,,0.00,,2013-02-09 19:32:00,
2013-02-09 14:42:00,43.0,13.0,-100.00,WNW,287,4.0,8.0,30,0.00,,,0.00,,2013-02-09 19:42:00,
2013-02-09 14:52:00,43.0,13.0,-100.00,WNW,287,4.0,8.0,30,0.00,,,0.00,,2013-02-09 19:52:00,
2013-02-09 15:02:00,44.0,12.0,-100.00,NNW,335,6.0,9.0,27,0.00,,,0.00,,2013-02-09 20:02:00,
2013-02-09 15:11:00,44.0,12.0,-100.00,NNW,335,6.0,9.0,27,0.00,,,0.00,,2013-02-09 20:11:00,
2013-02-09 15:22:00,44.0,12.0,-100.00,NNW,335,6.0,9.0,27,0.00,,,0.00,,2013-02-09 20:22:00,
2013-02-09 15:42:00,44.0,13.0,-100.00,NW,305,7.0,9.0,27,0.00,,,0.00,,2013-02-09 20:42:00,
2013-02-09 15:52:00,44.0,13.0,-100.00,NW,305,7.0,9.0,27,0.00,,,0.00,,2013-02-09 20:52:00,
2013-02-09 16:02:00,44.0,13.0,-100.00,NW,305,7.0,9.0,27,0.00,,,0.00,,2013-02-09 21:02:00,
2013-02-09 16:22:00,47.0,13.0,-100.00,WNW,285,3.0,6.0,25,0.00,,,0.00,,2013-02-09 21:22:00,
2013-02-09 16:32:00,47.0,13.0,-100.00,WNW,285,3.0,6.0,25,0.00,,,0.00,,2013-02-09 21:32:00,
2013-02-09 16:42:00,47.0,12.0,-100.00,West,268,4.0,7.0,24,0.00,,,0.00,,2013-02-09 21:42:00,
2013-02-09 16:52:00,47.0,12.0,-100.00,West,268,4.0,7.0,24,0.00,,,0.00,,2013-02-09 21:52:00,
2013-02-09 17:01:00,46.0,12.0,-100.00,NW,311,5.0,9.0,24,0.00,,,0.00,,2013-02-09 22:01:00,
2013-02-09 17:11:00,46.0,12.0,-100.00,NW,311,5.0,9.0,24,0.00,,,0.00,,2013-02-09 22:11:00,
2013-02-09 17:22:00,46.0,12.0,-100.00,NW,311,5.0,9.0,24,0.00,,,0.00,,2013-02-09 22:22:00,
2013-02-09 17:42:00,44.0,11.0,-100.00,NW,318,5.0,7.0,26,0.00,,,0.00,,2013-02-09 22:42:00,
2013-02-09 17:52:00,44.0,11.0,-100.00,NW,318,5.0,7.0,26,0.00,,,0.00,,2013-02-09 22:52:00,
2013-02-09 18:02:00,44.0,11.0,-100.00,NW,316,4.0,7.0,26,0.00,,,0.00,,2013-02-09 23:02:00,
2013-02-09 18:11:00,44.0,11.0,-100.00,NW,316,4.0,7.0,26,0.00,,,0.00,,2013-02-09 23:11:00,
2013-02-09 18:22:00,42.0,11.0,-100.00,WNW,289,3.0,4.0,27,0.00,,,0.00,,2013-02-09 23:22:00,
2013-02-09 18:32:00,42.0,11.0,-100.00,WNW,289,3.0,4.0,27,0.00,,,0.00,,2013-02-09 23:32:00,
2013-02-09 18:42:00,41.0,10.0,-100.00,WNW,282,3.0,4.0,28,0.00,,,0.00,,2013-02-09 23:42:00,
2013-02-09 18:52:00,41.0,10.0,-100.00,WNW,282,3.0,4.0,28,0.00,,,0.00,,2013-02-09 23:52:00,
2013-02-09 19:02:00,39.0,11.0,-100.00,NNW,342,0.0,1.0,31,0.00,,,0.00,,2013-02-10 00:02:00,
2013-02-09 19:12:00,39.0,11.0,-100.00,NNW,342,0.0,1.0,31,0.00,,,0.00,,2013-02-10 00:12:00,
2013-02-09 19:22:00,37.0,11.0,-100.00,WNW,296,1.0,2.0,33,0.00,,,0.00,,2013-02-10 00:22:00,
2013-02-09 19:32:00,37.0,11.0,-100.00,WNW,296,1.0,2.0,33,0.00,,,0.00,,2013-02-10 00:32:00,
2013-02-09 19:42:00,36.0,13.0,-100.00,SSW,192,0.0,0.0,38,0.00,,,0.00,,2013-02-10 00:42:00,
2013-02-09 19:52:00,36.0,13.0,-100.00,SSW,192,0.0,0.0,38,0.00,,,0.00,,2013-02-10 00:52:00,
2013-02-09 20:01:00,36.0,13.0,-100.00,SSW,192,0.0,0.0,38,0.00,,,0.00,,2013-02-10 01:01:00,
2013-02-09 20:22:00,33.0,15.0,-100.00,North,10,1.0,2.0,48,0.00,,,0.00,,2013-02-10 01:22:00,
2013-02-09 20:32:00,33.0,15.0,-100.00,North,10,1.0,2.0,48,0.00,,,0.00,,2013-02-10 01:32:00,
2013-02-09 20:42:00,33.0,15.0,-100.00,North,10,1.0,2.0,48,0.00,,,0.00,,2013-02-10 01:42:00,
2013-02-09 21:22:00,32.0,14.0,-100.00,South,189,0.0,1.0,47,0.00,,,0.00,,2013-02-10 02:22:00,
2013-02-09 21:32:00,32.0,14.0,-100.00,South,189,0.0,1.0,47,0.00,,,0.00,,2013-02-10 02:32:00,
2013-02-09 21:42:00,28.0,16.0,-100.00,NNE,23,2.0,2.0,60,0.00,,,0.00,,2013-02-10 02:42:00,
2013-02-09 21:52:00,28.0,16.0,-100.00,NNE,23,2.0,2.0,60,0.00,,,0.00,,2013-02-10 02:52:00,
2013-02-09 22:02:00,31.0,14.0,-100.00,NNE,23,1.0,2.0,49,0.00,,,0.00,,2013-02-10 03:02:00,
2013-02-09 22:12:00,31.0,14.0,-100.00,NNE,23,1.0,2.0,49,0.00,,,0.00,,2013-02-10 03:12:00,
2013-02-09 22:22:00,32.0,14.0,-100.00,North,4,2.0,4.0,47,0.00,,,0.00,,2013-02-10 03:22:00,
2013-02-09 22:32:00,32.0,14.0,-100.00,North,4,2.0,4.0,47,0.00,,,0.00,,2013-02-10 03:32:00,
2013-02-09 22:42:00,29.0,15.0,-100.00,NNW,330,1.0,2.0,56,0.00,,,0.00,,2013-02-10 03:42:00,
2013-02-09 22:52:00,29.0,15.0,-100.00,NNW,330,1.0,2.0,56,0.00,,,0.00,,2013-02-10 03:52:00,
2013-02-09 23:02:00,27.0,16.0,-100.00,NNW,330,0.0,1.0,61,0.00,,,0.00,,2013-02-10 04:02:00,
2013-02-09 23:11:00,27.0,16.0,-100.00,NNW,330,0.0,1.0,61,0.00,,,0.00,,2013-02-10 04:11:00,
2013-02-09 23:22:00,26.0,16.0,-100.00,North,1,1.0,2.0,64,0.00,,,0.00,,2013-02-10 04:22:00,
2013-02-09 23:32:00,26.0,16.0,-100.00,North,1,1.0,2.0,64,0.00,,,0.00,,2013-02-10 04:32:00,
2013-02-09 23:42:00,27.0,16.0,-100.00,NNW,346,2.0,3.0,62,0.00,,,0.00,,2013-02-10 04:42:00,
2013-02-09 23:52:00,27.0,16.0,-100.00,NNW,346,2.0,3.0,62,0.00,,,0.00,,2013-02-10 04:52:00,